Tracking 17630 objects as of 24-May-2016
HD Live streaming from Space Station
objects crossing your sky now

AVUM R/B

Track AVUM R/B now!
10-day predictions


NORAD ID: 38086
Int'l Code: 2012-006K
Perigee: 242.6 km
Apogee: 519.7 km
Inclination: 69.5 °
Period: 92.0 minutes
Semi major axis: 6752 km
RCS: 4.0982 m2 (large)
Launch date: February 13, 2012
Source: European Space Agency (ESA)
Launch site: FRENCH GUIANA (FRGUI)

Note: This is a ROCKET BODY
Your satellite tracking list
Your tracking list is empty





NASA's NSSDC Master Catalog

Two Line Element Set (TLE):
1 38086U 12006K   16144.51113445  .00087977  60761-5  28408-3 0  9992
2 38086  69.4685 306.2190 0205184  50.1357 311.7677 15.64723272229472
Source of the keplerian elements: AFSPC

N2YO: 398